Volver al catálogo

PRAETORIAN SDA_521

ActivoMilitarPO
NORAD 100079·PAYLOAD·🇺🇸 United States

Lanzado Jul 16, 2026 desde Vandenberg Space Force Base

Loading…

Próximos Pases (próximas 24 horas)

TLE

ActualizadoSource: Space-Track

Época: Sep 14, 2026, 23:06 UTC

1 A0079U 26163W   26257.96256064  .00000123  00000-0  96359-4 0  9996
2 A0079  81.4773 254.9734 0016829  54.2119 306.0601 13.85973957  8337

Sigue PRAETORIAN SDA_521 en tiempo real con AllMySat

Download on the App Store